User: anonymous   Login
Location: Cactus School
(34.5700°N, 118.0931°W)
Time: 13:23:50
(UTC-07:00)
Language:

Transit 4A - Orbit

View from above orbital plane
View from above orbital plane
View from above satellite
View from above satellite

Ground track
Ground track

The orbit data is extracted from the following two-line orbital elements,

1   116U 61015A   24103.21441953  .00000098  00000-0  13378-3 0  9992
2   116  66.8114  38.1033 0068889 113.1157 247.7203 13.92018056186401
Epoch (UTC): 12 April 2024 05:08:45
Eccentricity: 0.0068889
inclination: 66.8114°
perigee height: 871 km
apogee height: 972 km
right ascension of ascending node: 38.1033°
argument of perigee: 113.1157°
revolutions per day: 13.92018056
mean anomaly at epoch: 247.7203°
orbit number at epoch: 18640

The dashed part of the orbit path shows where the satellite is in the earth's shadow,  

DLR